Regional Weather Roundup
Issued by NWS Albany, NY

Current Version | Previous Version | Text Only | Print | Product List | Glossary On
Versions: 1 2 3 4 5 6 7 8 9 10 11 12 13 14 15 16 17 18 19 20 21 22 23 24 25 26 27 28 29 30 31 32 33 34 35 36 37 38 39 40 41 42 43 44 45 46 47 48 49 50
503
ASUS41 KALY 221810
RWRALY

NEW YORK STATE HOURLY WEATHER ROUNDUP
NATIONAL WEATHER SERVICE ALBANY NY
100 PM EST WED JAN 22 2020

NOTE: "FAIR" INDICATES FEW OR NO CLOUDS BELOW 12,000 FEET WITH NO
SIGNIFICANT WEATHER AND/OR NO OBSTRUCTIONS TO VISIBILITY.

NYZ032-033-038>043-046>054-057>066-NYZ062>081-082-084-221900-
EAST


CITY           SKY/WX    TMP DP  RH WIND       PRES   REMARKS
ALBANY         FAIR      31  18  58 S3        30.44S
GLENS FALLS    FAIR      29  19  66 S10       30.40F WCI  20
POUGHKEEPSIE   FAIR      31  14  49 CALM      30.43F
NEWBURGH       SUNNY     32  19  59 CALM      30.41F
MONTGOMERY     FAIR      31  16  54 E5        30.40F WCI  26
ISLIP          FAIR      37  16  42 VRB3      30.42F
NEW YORK CITY  FAIR      36  16  44 NE3       30.43F
CENTRAL PARK   FAIR      35  16  45 MISG      30.44F
$$

NYZ005>009-017-018-044>046-055-056-221900-
CENTRAL


CITY           SKY/WX    TMP DP  RH WIND       PRES   REMARKS
FULTON         FAIR      30  15  53 S6        30.37F WCI  24
SYRACUSE       PTSUNNY   31  16  54 CALM      30.38F
ROME           FAIR      30  21  69 SE5       30.40F WCI  25
ELMIRA         FAIR      32  17  54 E3        30.35F
BINGHAMTON     FAIR      27  14  58 SW7       30.33F WCI  19
MONTICELLO     FAIR      31  17  56 W3        30.36F
$$

NYZ026>034-041>043-087-221900-
NORTH


CITY           SKY/WX    TMP DP  RH WIND       PRES   REMARKS
WATERTOWN      CLOUDY    29  21  72 SW12G21   30.36F WCI  19
FORT DRUM      NOT AVBL
OGDENSBURG     CLOUDY    30  25  80 S15G22    30.29F WCI  19
MASSENA        FAIR      32  24  72 SW25G36   30.29F WCI  19
SARANAC LAKE   FAIR      29  20  69 SW10      30.23F WCI  20
PLATTSBURGH    FAIR      31  22  69 SE13      30.30F WCI  21
$$

NYZ001>004-010>016-019>021-085-221900-
WEST


CITY           SKY/WX    TMP DP  RH WIND       PRES   REMARKS
NIAGARA FALLS  FAIR      28  20  71 SW22      30.32F WCI  14
BUFFALO        PTSUNNY   29  15  56 SW18      30.33F WCI  16
DUNKIRK        FAIR      30  13  49 S8        30.36F WCI  22
JAMESTOWN      FAIR      28  14  55 S12       30.30F WCI  18
WELLSVILLE     FAIR      29  11  47 VRB7      30.29F WCI  22
ROCHESTER      PTSUNNY   28  12  51 S9        30.34F WCI  19
PENN YAN       FAIR      32  16  51 S6        30.34F WCI  26
$$

             KEY
       WCI = WIND CHILL INDEX
       VSB = VISIBILITY
       HX  = HEAT INDEX
$$




USA.gov is the U.S. government's official web portal to all federal, state and local government web resources and services.